Regional Weather Roundup
Issued by NWS

Home | Current Version | Previous Version | Text Only | Print | Product List | Glossary Off
Versions: 1 2 3 4 5 6 7 8 9 10 11 12 13 14 15 16 17 18 19 20 21 22 23 24 25 26 27 28 29 30 31 32 33 34 35 36 37 38 39 40 41 42 43 44 45 46 47 48 49 50

000
ASUS45 KBOI 300110
RWRID
WEATHER ROUNDUP FOR IDAHO
NATIONAL WEATHER SERVICE BOISE ID
700 PM MDT TUE JUL 29 2014

NOTE: "FAIR" INDICATES FEW OR NO CLOUDS BELOW 12000 FEET
WITH NO SIGNIFICANT WEATHER AND/OR OBSTRUCTIONS TO VISIBILITY

IDZ012-014-300200-
SOUTHWEST IDAHO


CITY           SKY/WX    TMP DP  RH WIND       PRES   REMARKS
BOISE          PTSUNNY   91  43  18 NW13      30.02R
CALDWELL       PTSUNNY   91  46  21 NW17G23   30.01F
MOUNTAIN HOME  PTSUNNY   87  55  33 NE8       30.02S
$$

IDZ016-017-300200-
SOUTHCENTRAL IDAHO


CITY           SKY/WX    TMP DP  RH WIND       PRES   REMARKS
BURLEY         PTSUNNY   81  50  33 E7        30.09F
JEROME         PTSUNNY   75  58  55 N17G26    30.14R
TWIN FALLS     MOSUNNY   87  50  27 NE6       30.11S
$$

IDZ019>023-300200-
SOUTHEAST IDAHO


CITY           SKY/WX    TMP DP  RH WIND       PRES   REMARKS
IDAHO FALLS    CLOUDY    76  54  46 E8        30.19S
POCATELLO      SUNNY     77  56  48 E7        30.14F
REXBURG        CLOUDY    74  53  48 NE5       30.20S
$$

IDZ006-010-011-018-031-032-300200-
CENTRAL IDAHO MOUNTAINS


CITY           SKY/WX    TMP DP  RH WIND       PRES   REMARKS
MCCALL         PTSUNNY   85  37  18 NW9       30.15F
HAILEY         CLOUDY    63  55  77 NW9       30.24F
STANLEY          N/A     74  39  28 CALM      30.29F
SALMON         PTSUNNY   88  41  19 S13       30.06F
CHALLIS        CLOUDY    78  44  29 N13       30.18S
$$

IDZ002-004-006-007-026-300200-
NORTHERN IDAHO


CITY           SKY/WX    TMP DP  RH WIND       PRES   REMARKS
LEWISTON       MOSUNNY  103  33   9 W6        29.91F HX  96
LOWELL           N/A     87  63  44 CALM      29.91F
COEUR D`ALENE  SUNNY     97  43  15 CALM      29.94F HX  92
MULLAN PASS    MOSUNNY   80  39  23 VRB3      30.28F
$$


USA.gov is the U.S. government's official web portal to all federal, state and local government web resources and services.